Time,TemperatureF,DewpointF,PressureIn,WindDirection,WindDirectionDegrees,WindSpeedMPH,WindSpeedGustMPH,Humidity,HourlyPrecipIn,Conditions,Clouds,dailyrainin,SoftwareType,DateUTC
2013-03-09 00:03:00,56.0,-99.9,30.20,ENE,77,6.0,9.0,-999,-99.99,,,-99.99,,2013-03-09 05:03:00,
2013-03-09 00:12:00,56.0,-99.9,30.19,East,79,7.0,13.0,-999,-99.99,,,-99.99,,2013-03-09 05:12:00,
2013-03-09 00:22:00,56.0,-99.9,30.19,East,81,6.0,13.0,-999,-99.99,,,-99.99,,2013-03-09 05:22:00,
2013-03-09 00:32:00,56.0,-99.9,30.19,East,99,5.0,9.0,-999,-99.99,,,-99.99,,2013-03-09 05:32:00,
2013-03-09 00:43:00,56.0,-99.9,30.19,ESE,115,5.0,7.0,-999,-99.99,,,-99.99,,2013-03-09 05:43:00,
2013-03-09 00:53:00,56.0,-99.9,30.19,East,97,5.0,9.0,-999,-99.99,,,-99.99,,2013-03-09 05:53:00,
2013-03-09 01:02:00,56.0,-99.9,30.19,East,91,4.0,7.0,-999,-99.99,,,-99.99,,2013-03-09 06:02:00,
2013-03-09 01:11:00,56.0,-99.9,30.19,ENE,73,4.0,6.0,-999,-99.99,,,-99.99,,2013-03-09 06:11:00,
2013-03-09 01:22:00,56.0,-99.9,30.18,ENE,61,5.0,7.0,-999,-99.99,,,-99.99,,2013-03-09 06:22:00,
2013-03-09 01:32:00,56.0,-99.9,30.18,East,83,4.0,6.0,-999,-99.99,,,-99.99,,2013-03-09 06:32:00,
2013-03-09 01:42:00,56.0,-99.9,30.18,ENE,58,4.0,6.0,-999,-99.99,,,-99.99,,2013-03-09 06:42:00,
2013-03-09 01:52:00,56.0,-99.9,30.19,East,84,5.0,7.0,-999,-99.99,,,-99.99,,2013-03-09 06:52:00,
2013-03-09 02:01:00,56.0,-99.9,30.18,ENE,67,4.0,7.0,-999,-99.99,,,-99.99,,2013-03-09 07:01:00,
2013-03-09 02:11:00,55.0,-99.9,30.18,ENE,64,4.0,8.0,-999,-99.99,,,-99.99,,2013-03-09 07:11:00,
2013-03-09 02:22:00,55.0,-99.9,30.19,East,83,4.0,5.0,-999,-99.99,,,-99.99,,2013-03-09 07:22:00,
2013-03-09 02:32:00,55.0,-99.9,30.19,East,100,4.0,7.0,-999,-99.99,,,-99.99,,2013-03-09 07:32:00,
2013-03-09 02:42:00,55.0,-99.9,30.18,ESE,104,5.0,8.0,-999,-99.99,,,-99.99,,2013-03-09 07:42:00,
2013-03-09 02:52:00,55.0,-99.9,30.16,East,92,6.0,9.0,-999,-99.99,,,-99.99,,2013-03-09 07:52:00,
2013-03-09 03:01:00,55.0,-99.9,30.16,East,98,7.0,9.0,-999,-99.99,,,-99.99,,2013-03-09 08:01:00,
2013-03-09 03:11:00,55.0,-99.9,30.16,ESE,111,6.0,10.0,-999,-99.99,,,-99.99,,2013-03-09 08:11:00,
2013-03-09 03:22:00,55.0,-99.9,30.15,East,99,7.0,9.0,-999,-99.99,,,-99.99,,2013-03-09 08:22:00,
2013-03-09 03:32:00,55.0,-99.9,30.15,East,93,6.0,10.0,-999,-99.99,,,-99.99,,2013-03-09 08:32:00,
2013-03-09 03:42:00,55.0,-99.9,30.15,East,96,6.0,9.0,-999,-99.99,,,-99.99,,2013-03-09 08:42:00,
2013-03-09 03:52:00,55.0,-99.9,30.16,East,88,5.0,8.0,-999,-99.99,,,-99.99,,2013-03-09 08:52:00,
2013-03-09 04:02:00,55.0,-99.9,30.16,East,99,4.0,8.0,-999,-99.99,,,-99.99,,2013-03-09 09:02:00,
2013-03-09 04:12:00,55.0,-99.9,30.16,East,96,4.0,6.0,-999,-99.99,,,-99.99,,2013-03-09 09:12:00,
2013-03-09 04:21:00,55.0,-99.9,30.16,East,82,5.0,6.0,-999,-99.99,,,-99.99,,2013-03-09 09:21:00,
2013-03-09 04:32:00,55.0,-99.9,30.16,East,89,5.0,7.0,-999,-99.99,,,-99.99,,2013-03-09 09:32:00,
2013-03-09 04:42:00,55.0,-99.9,30.16,East,90,5.0,7.0,-999,-99.99,,,-99.99,,2013-03-09 09:42:00,
2013-03-09 04:52:00,55.0,-99.9,30.16,East,86,8.0,9.0,-999,-99.99,,,-99.99,,2013-03-09 09:52:00,
2013-03-09 05:01:00,55.0,-99.9,30.15,East,94,5.0,9.0,-999,-99.99,,,-99.99,,2013-03-09 10:01:00,
2013-03-09 05:11:00,55.0,-99.9,30.16,East,94,7.0,9.0,-999,-99.99,,,-99.99,,2013-03-09 10:11:00,
2013-03-09 05:22:00,55.0,-99.9,30.16,East,88,6.0,7.0,-999,-99.99,,,-99.99,,2013-03-09 10:22:00,
2013-03-09 05:32:00,55.0,-99.9,30.17,East,79,5.0,7.0,-999,-99.99,,,-99.99,,2013-03-09 10:32:00,
2013-03-09 05:42:00,55.0,-99.9,30.17,East,98,5.0,8.0,-999,-99.99,,,-99.99,,2013-03-09 10:42:00,
2013-03-09 05:52:00,54.0,-99.9,30.17,East,93,6.0,8.0,-999,-99.99,,,-99.99,,2013-03-09 10:52:00,
2013-03-09 06:01:00,54.0,-99.9,30.17,East,90,5.0,9.0,-999,-99.99,,,-99.99,,2013-03-09 11:01:00,
2013-03-09 06:11:00,54.0,-99.9,30.17,East,90,6.0,9.0,-999,-99.99,,,-99.99,,2013-03-09 11:11:00,
2013-03-09 06:22:00,54.0,-99.9,30.17,East,91,6.0,9.0,-999,-99.99,,,-99.99,,2013-03-09 11:22:00,
2013-03-09 06:32:00,53.0,-99.9,30.17,East,97,6.0,9.0,-999,-99.99,,,-99.99,,2013-03-09 11:32:00,
2013-03-09 06:42:00,53.0,-99.9,30.18,East,94,6.0,8.0,-999,-99.99,,,-99.99,,2013-03-09 11:42:00,
2013-03-09 06:52:00,53.0,-99.9,30.19,East,93,6.0,8.0,-999,-99.99,,,-99.99,,2013-03-09 11:52:00,
2013-03-09 07:02:00,54.0,-99.9,30.18,East,93,6.0,8.0,-999,-99.99,,,-99.99,,2013-03-09 12:02:00,
2013-03-09 07:12:00,54.0,-99.9,30.19,East,97,7.0,9.0,-999,-99.99,,,-99.99,,2013-03-09 12:12:00,
2013-03-09 07:22:00,54.0,-99.9,30.19,East,98,6.0,7.0,-999,-99.99,,,-99.99,,2013-03-09 12:22:00,
2013-03-09 07:32:00,54.0,-99.9,30.19,East,96,5.0,9.0,-999,-99.99,,,-99.99,,2013-03-09 12:32:00,
2013-03-09 07:42:00,54.0,-99.9,30.19,East,96,6.0,8.0,-999,-99.99,,,-99.99,,2013-03-09 12:42:00,
2013-03-09 07:52:00,55.0,-99.9,30.20,East,94,6.0,9.0,-999,-99.99,,,-99.99,,2013-03-09 12:52:00,
2013-03-09 08:02:00,55.0,-99.9,30.19,East,87,8.0,12.0,-999,-99.99,,,-99.99,,2013-03-09 13:02:00,
2013-03-09 08:11:00,55.0,-99.9,30.19,East,87,10.0,12.0,-999,-99.99,,,-99.99,,2013-03-09 13:11:00,
2013-03-09 08:22:00,56.0,-99.9,30.20,East,90,8.0,12.0,-999,-99.99,,,-99.99,,2013-03-09 13:22:00,
2013-03-09 08:32:00,56.0,-99.9,30.20,East,88,9.0,13.0,-999,-99.99,,,-99.99,,2013-03-09 13:32:00,
2013-03-09 08:42:00,56.0,-99.9,30.20,East,92,9.0,11.0,-999,-99.99,,,-99.99,,2013-03-09 13:42:00,
2013-03-09 08:52:00,57.0,-99.9,30.20,East,101,10.0,14.0,-999,-99.99,,,-99.99,,2013-03-09 13:52:00,
2013-03-09 09:01:00,58.0,-99.9,30.21,East,99,7.0,11.0,-999,-99.99,,,-99.99,,2013-03-09 14:01:00,
2013-03-09 09:11:00,58.0,-99.9,30.21,East,92,8.0,11.0,-999,-99.99,,,-99.99,,2013-03-09 14:11:00,
2013-03-09 09:22:00,59.0,-99.9,30.22,ESE,103,9.0,13.0,-999,-99.99,,,-99.99,,2013-03-09 14:22:00,
2013-03-09 09:32:00,60.0,-99.9,30.22,East,101,10.0,15.0,-999,-99.99,,,-99.99,,2013-03-09 14:32:00,
2013-03-09 09:42:00,60.0,-99.9,30.22,ESE,103,8.0,15.0,-999,-99.99,,,-99.99,,2013-03-09 14:42:00,
2013-03-09 09:52:00,61.0,-99.9,30.21,East,100,11.0,14.0,-999,-99.99,,,-99.99,,2013-03-09 14:52:00,
2013-03-09 10:02:00,62.0,-99.9,30.21,ESE,105,9.0,15.0,-999,-99.99,,,-99.99,,2013-03-09 15:02:00,
2013-03-09 10:12:00,62.0,-99.9,30.21,ESE,102,10.0,14.0,-999,-99.99,,,-99.99,,2013-03-09 15:12:00,
2013-03-09 10:22:00,62.0,-99.9,30.21,SE,126,10.0,15.0,-999,-99.99,,,-99.99,,2013-03-09 15:22:00,
2013-03-09 10:32:00,63.0,-99.9,30.21,ESE,104,7.0,13.0,-999,-99.99,,,-99.99,,2013-03-09 15:32:00,
2013-03-09 10:42:00,63.0,-99.9,30.22,ESE,114,9.0,13.0,-999,-99.99,,,-99.99,,2013-03-09 15:42:00,
2013-03-09 10:52:00,64.0,-99.9,30.22,ESE,115,9.0,15.0,-999,-99.99,,,-99.99,,2013-03-09 15:52:00,
2013-03-09 11:02:00,64.0,-99.9,30.22,ESE,123,8.0,13.0,-999,-99.99,,,-99.99,,2013-03-09 16:02:00,
2013-03-09 11:12:00,65.0,-99.9,30.22,East,101,8.0,13.0,-999,-99.99,,,-99.99,,2013-03-09 16:12:00,
2013-03-09 11:22:00,65.0,-99.9,30.22,ESE,123,9.0,12.0,-999,-99.99,,,-99.99,,2013-03-09 16:22:00,
2013-03-09 11:32:00,65.0,-99.9,30.21,SE,125,9.0,12.0,-999,-99.99,,,-99.99,,2013-03-09 16:32:00,
2013-03-09 11:42:00,66.0,-99.9,30.21,ESE,118,10.0,13.0,-999,-99.99,,,-99.99,,2013-03-09 16:42:00,
2013-03-09 11:52:00,66.0,-99.9,30.20,ESE,113,10.0,14.0,-999,-99.99,,,-99.99,,2013-03-09 16:52:00,
2013-03-09 12:01:00,67.0,-99.9,30.21,East,93,7.0,11.0,-999,-99.99,,,-99.99,,2013-03-09 17:01:00,
2013-03-09 12:11:00,67.0,-99.9,30.21,SE,126,8.0,10.0,-999,-99.99,,,-99.99,,2013-03-09 17:11:00,
2013-03-09 12:22:00,67.0,-99.9,30.21,SE,131,7.0,9.0,-999,-99.99,,,-99.99,,2013-03-09 17:22:00,
2013-03-09 12:32:00,67.0,-99.9,30.19,SE,134,8.0,10.0,-999,-99.99,,,-99.99,,2013-03-09 17:32:00,
2013-03-09 12:42:00,68.0,-99.9,30.19,SE,132,9.0,11.0,-999,-99.99,,,-99.99,,2013-03-09 17:42:00,
2013-03-09 12:52:00,68.0,-99.9,30.20,SE,129,8.0,10.0,-999,-99.99,,,-99.99,,2013-03-09 17:52:00,
2013-03-09 13:02:00,69.0,-99.9,30.20,SE,131,6.0,10.0,-999,-99.99,,,-99.99,,2013-03-09 18:02:00,
2013-03-09 13:11:00,69.0,-99.9,30.20,SSE,156,8.0,10.0,-999,-99.99,,,-99.99,,2013-03-09 18:11:00,
2013-03-09 13:22:00,69.0,-99.9,30.19,SE,126,5.0,8.0,-999,-99.99,,,-99.99,,2013-03-09 18:22:00,
2013-03-09 13:32:00,69.0,-99.9,30.18,SE,130,6.0,8.0,-999,-99.99,,,-99.99,,2013-03-09 18:32:00,
2013-03-09 13:42:00,70.0,-99.9,30.18,ENE,69,3.0,7.0,-999,-99.99,,,-99.99,,2013-03-09 18:42:00,
2013-03-09 13:52:00,64.0,-99.9,30.17,NW,310,10.0,11.0,-999,-99.99,,,-99.99,,2013-03-09 18:52:00,
2013-03-09 14:02:00,63.0,-99.9,30.17,NW,316,9.0,10.0,-999,-99.99,,,-99.99,,2013-03-09 19:02:00,
2013-03-09 14:12:00,63.0,-99.9,30.17,NW,312,7.0,9.0,-999,-99.99,,,-99.99,,2013-03-09 19:12:00,
2013-03-09 14:22:00,63.0,-99.9,30.16,NW,318,7.0,8.0,-999,-99.99,,,-99.99,,2013-03-09 19:22:00,
2013-03-09 14:32:00,62.0,-99.9,30.15,NNW,329,7.0,10.0,-999,-99.99,,,-99.99,,2013-03-09 19:32:00,
2013-03-09 14:42:00,62.0,-99.9,30.15,NW,317,9.0,10.0,-999,-99.99,,,-99.99,,2013-03-09 19:42:00,
2013-03-09 14:52:00,62.0,-99.9,30.16,NW,325,8.0,10.0,-999,-99.99,,,-99.99,,2013-03-09 19:52:00,
2013-03-09 15:02:00,62.0,-99.9,30.16,NNW,337,11.0,13.0,-999,-99.99,,,-99.99,,2013-03-09 20:02:00,
2013-03-09 15:12:00,62.0,-99.9,30.16,NNW,330,10.0,12.0,-999,-99.99,,,-99.99,,2013-03-09 20:12:00,
2013-03-09 15:22:00,62.0,-99.9,30.16,NNW,337,11.0,12.0,-999,-99.99,,,-99.99,,2013-03-09 20:22:00,
2013-03-09 15:32:00,62.0,-99.9,30.16,NW,326,7.0,11.0,-999,-99.99,,,-99.99,,2013-03-09 20:32:00,
2013-03-09 15:42:00,63.0,-99.9,30.16,NW,325,7.0,9.0,-999,-99.99,,,-99.99,,2013-03-09 20:42:00,
2013-03-09 15:52:00,62.0,-99.9,30.15,NNW,327,7.0,9.0,-999,-99.99,,,-99.99,,2013-03-09 20:52:00,
2013-03-09 16:02:00,62.0,-99.9,30.15,NNW,337,8.0,9.0,-999,-99.99,,,-99.99,,2013-03-09 21:02:00,
2013-03-09 16:12:00,62.0,-99.9,30.15,NNW,339,8.0,9.0,-999,-99.99,,,-99.99,,2013-03-09 21:12:00,
2013-03-09 16:22:00,62.0,-99.9,30.15,NNW,340,9.0,10.0,-999,-99.99,,,-99.99,,2013-03-09 21:22:00,
2013-03-09 16:32:00,62.0,-99.9,30.15,NNW,341,9.0,11.0,-999,-99.99,,,-99.99,,2013-03-09 21:32:00,
2013-03-09 16:42:00,62.0,-99.9,30.15,NNW,346,9.0,11.0,-999,-99.99,,,-99.99,,2013-03-09 21:42:00,
2013-03-09 16:52:00,62.0,-99.9,30.14,NNW,347,11.0,12.0,-999,-99.99,,,-99.99,,2013-03-09 21:52:00,
2013-03-09 17:01:00,62.0,-99.9,30.15,NNW,346,11.0,13.0,-999,-99.99,,,-99.99,,2013-03-09 22:01:00,
2013-03-09 17:11:00,62.0,-99.9,30.15,North,350,11.0,13.0,-999,-99.99,,,-99.99,,2013-03-09 22:11:00,
2013-03-09 17:22:00,62.0,-99.9,30.15,North,349,10.0,12.0,-999,-99.99,,,-99.99,,2013-03-09 22:22:00,
2013-03-09 17:32:00,62.0,-99.9,30.15,North,356,11.0,13.0,-999,-99.99,,,-99.99,,2013-03-09 22:32:00,
2013-03-09 17:42:00,62.0,-99.9,30.15,North,358,11.0,12.0,-999,-99.99,,,-99.99,,2013-03-09 22:42:00,
2013-03-09 17:52:00,62.0,-99.9,30.14,North,357,10.0,12.0,-999,-99.99,,,-99.99,,2013-03-09 22:52:00,
2013-03-09 18:01:00,62.0,-99.9,30.15,North,359,11.0,13.0,-999,-99.99,,,-99.99,,2013-03-09 23:01:00,
2013-03-09 18:11:00,62.0,-99.9,30.15,North,4,11.0,13.0,-999,-99.99,,,-99.99,,2013-03-09 23:11:00,
2013-03-09 18:22:00,62.0,-99.9,30.14,NNE,13,10.0,12.0,-999,-99.99,,,-99.99,,2013-03-09 23:22:00,
2013-03-09 18:32:00,62.0,-99.9,30.15,North,358,10.0,11.0,-999,-99.99,,,-99.99,,2013-03-09 23:32:00,
2013-03-09 18:42:00,62.0,-99.9,30.15,North,359,9.0,11.0,-999,-99.99,,,-99.99,,2013-03-09 23:42:00,
2013-03-09 18:52:00,62.0,-99.9,30.16,North,360,9.0,10.0,-999,-99.99,,,-99.99,,2013-03-09 23:52:00,
2013-03-09 19:02:00,62.0,-99.9,30.16,North,354,9.0,10.0,-999,-99.99,,,-99.99,,2013-03-10 00:02:00,
2013-03-09 19:12:00,62.0,-99.9,30.17,North,359,9.0,11.0,-999,-99.99,,,-99.99,,2013-03-10 00:12:00,
2013-03-09 19:22:00,62.0,-99.9,30.16,NNE,15,10.0,12.0,-999,-99.99,,,-99.99,,2013-03-10 00:22:00,
2013-03-09 19:32:00,62.0,-99.9,30.16,NNE,23,11.0,12.0,-999,-99.99,,,-99.99,,2013-03-10 00:32:00,
2013-03-09 19:43:00,62.0,-99.9,30.17,NNE,17,11.0,13.0,-999,-99.99,,,-99.99,,2013-03-10 00:43:00,
2013-03-09 19:52:00,62.0,-99.9,30.17,North,9,12.0,14.0,-999,-99.99,,,-99.99,,2013-03-10 00:52:00,
2013-03-09 20:01:00,62.0,-99.9,30.18,NNE,16,12.0,13.0,-999,-99.99,,,-99.99,,2013-03-10 01:01:00,
2013-03-09 20:11:00,62.0,-99.9,30.18,North,9,9.0,13.0,-999,-99.99,,,-99.99,,2013-03-10 01:11:00,
2013-03-09 20:22:00,62.0,-99.9,30.18,NNE,16,8.0,10.0,-999,-99.99,,,-99.99,,2013-03-10 01:22:00,
2013-03-09 20:32:00,62.0,-99.9,30.17,NNE,33,9.0,11.0,-999,-99.99,,,-99.99,,2013-03-10 01:32:00,
2013-03-09 20:42:00,62.0,-99.9,30.16,NE,38,6.0,10.0,-999,-99.99,,,-99.99,,2013-03-10 01:42:00,
2013-03-09 20:52:00,62.0,-99.9,30.17,NNE,31,7.0,8.0,-999,-99.99,,,-99.99,,2013-03-10 01:52:00,
2013-03-09 21:01:00,62.0,-99.9,30.16,NE,37,6.0,9.0,-999,-99.99,,,-99.99,,2013-03-10 02:01:00,
2013-03-09 21:11:00,62.0,-99.9,30.16,NE,47,5.0,7.0,-999,-99.99,,,-99.99,,2013-03-10 02:11:00,
2013-03-09 21:22:00,62.0,-99.9,30.16,ENE,58,6.0,8.0,-999,-99.99,,,-99.99,,2013-03-10 02:22:00,
2013-03-09 21:32:00,62.0,-99.9,30.16,NE,52,9.0,12.0,-999,-99.99,,,-99.99,,2013-03-10 02:32:00,
2013-03-09 21:42:00,62.0,-99.9,30.16,NE,52,8.0,11.0,-999,-99.99,,,-99.99,,2013-03-10 02:42:00,
2013-03-09 21:52:00,63.0,-99.9,30.16,ENE,58,7.0,9.0,-999,-99.99,,,-99.99,,2013-03-10 02:52:00,
2013-03-09 22:02:00,62.0,-99.9,30.18,East,84,5.0,7.0,-999,-99.99,,,-99.99,,2013-03-10 03:02:00,
2013-03-09 22:12:00,62.0,-99.9,30.18,East,92,4.0,6.0,-999,-99.99,,,-99.99,,2013-03-10 03:12:00,
2013-03-09 22:22:00,62.0,-99.9,30.17,ESE,106,6.0,8.0,-999,-99.99,,,-99.99,,2013-03-10 03:22:00,
2013-03-09 22:32:00,62.0,-99.9,30.17,ESE,117,9.0,12.0,-999,-99.99,,,-99.99,,2013-03-10 03:32:00,
2013-03-09 22:42:00,62.0,-99.9,30.17,ESE,112,6.0,10.0,-999,-99.99,,,-99.99,,2013-03-10 03:42:00,
2013-03-09 22:52:00,63.0,-99.9,30.17,SE,127,9.0,13.0,-999,-99.99,,,-99.99,,2013-03-10 03:52:00,
2013-03-09 23:01:00,64.0,-99.9,30.17,ESE,123,9.0,13.0,-999,-99.99,,,-99.99,,2013-03-10 04:01:00,
2013-03-09 23:11:00,64.0,-99.9,30.17,SE,124,13.0,19.0,-999,-99.99,,,-99.99,,2013-03-10 04:11:00,
2013-03-09 23:22:00,64.0,-99.9,30.17,SE,131,13.0,18.0,-999,-99.99,,,-99.99,,2013-03-10 04:22:00,
2013-03-09 23:32:00,64.0,-99.9,30.17,ESE,120,12.0,19.0,-999,-99.99,,,-99.99,,2013-03-10 04:32:00,
2013-03-09 23:42:00,64.0,-99.9,30.17,SE,126,11.0,17.0,-999,-99.99,,,-99.99,,2013-03-10 04:42:00,
2013-03-09 23:52:00,64.0,-99.9,30.17,SE,132,13.0,16.0,-999,-99.99,,,-99.99,,2013-03-10 04:52:00,